TimePDT,TemperatureF,Dew PointF,Humidity,Sea Level PressureIn,VisibilityMPH,Wind Direction,Wind SpeedMPH,Gust SpeedMPH,PrecipitationIn,Events,Conditions,WindDirDegrees,DateUTC
12:53 AM,54.0,53.1,97,29.96,9.0,East,5.8,-,0.03,Rain,Light Rain,90,2013-06-26 07:53:00
1:53 AM,52.0,51.1,97,29.98,10.0,ENE,3.5,-,0.00,,Mostly Cloudy,60,2013-06-26 08:53:00
2:06 AM,51.8,51.8,100,30.02,10.0,NNE,4.6,-,N/A,,Overcast,30,2013-06-26 09:06:00
2:16 AM,51.8,51.8,100,30.02,10.0,North,4.6,-,N/A,,Overcast,10,2013-06-26 09:16:00
2:53 AM,53.1,52.0,96,29.99,9.0,NE,4.6,-,0.00,,Overcast,50,2013-06-26 09:53:00
3:53 AM,53.1,52.0,96,29.98,10.0,NE,3.5,-,N/A,,Overcast,50,2013-06-26 10:53:00
4:16 AM,53.6,51.8,94,30.04,10.0,Calm,Calm,-,0.00,Rain,Light Rain,0,2013-06-26 11:16:00
4:53 AM,53.1,52.0,96,29.99,10.0,NE,3.5,-,0.00,,Overcast,40,2013-06-26 11:53:00
5:53 AM,53.1,52.0,96,30.00,10.0,NE,4.6,-,0.00,,Overcast,50,2013-06-26 12:53:00
6:53 AM,55.0,54.0,96,30.01,10.0,ENE,5.8,-,0.00,,Overcast,60,2013-06-26 13:53:00
7:28 AM,55.4,53.6,94,30.07,2.0,ESE,5.8,-,0.04,Rain,Rain,110,2013-06-26 14:28:00
7:37 AM,55.4,53.6,94,30.07,6.0,ESE,4.6,-,0.05,Rain,Light Rain,110,2013-06-26 14:37:00
7:53 AM,55.9,54.0,93,30.02,10.0,SE,3.5,-,0.05,Rain,Light Rain,130,2013-06-26 14:53:00
8:25 AM,55.4,53.6,94,30.08,10.0,Calm,Calm,-,0.00,Rain,Light Rain,0,2013-06-26 15:25:00
8:32 AM,55.4,53.6,94,30.08,10.0,Calm,Calm,-,0.00,Rain,Light Rain,0,2013-06-26 15:32:00
8:53 AM,57.9,54.0,87,30.04,10.0,NNE,3.5,-,0.01,Rain,Light Rain,20,2013-06-26 15:53:00
9:53 AM,61.0,55.0,81,30.03,10.0,ENE,3.5,-,0.00,,Mostly Cloudy,70,2013-06-26 16:53:00
10:53 AM,63.0,55.9,78,30.02,10.0,ENE,6.9,-,N/A,,Overcast,60,2013-06-26 17:53:00
11:53 AM,66.0,53.1,63,30.01,10.0,SSW,3.5,-,N/A,,Overcast,200,2013-06-26 18:53:00
12:53 PM,70.0,52.0,53,29.99,10.0,Variable,4.6,-,N/A,,Scattered Clouds,0,2013-06-26 19:53:00
1:53 PM,71.1,52.0,51,29.99,10.0,Calm,Calm,-,N/A,,Overcast,0,2013-06-26 20:53:00
2:53 PM,75.0,50.0,41,29.97,10.0,South,17.3,21.9,N/A,,Mostly Cloudy,190,2013-06-26 21:53:00
3:53 PM,77.0,48.9,37,29.98,10.0,SW,15.0,26.5,N/A,,Scattered Clouds,220,2013-06-26 22:53:00
4:53 PM,75.9,48.0,37,29.98,10.0,SW,16.1,20.7,N/A,,Partly Cloudy,220,2013-06-26 23:53:00
5:53 PM,72.0,48.9,44,29.99,10.0,SSW,10.4,-,N/A,,Clear,210,2013-06-27 00:53:00
6:53 PM,75.0,51.1,43,29.99,10.0,West,11.5,-,N/A,,Partly Cloudy,260,2013-06-27 01:53:00
7:53 PM,70.0,52.0,53,30.02,10.0,West,9.2,-,N/A,,Clear,280,2013-06-27 02:53:00
8:53 PM,62.1,51.1,67,30.06,10.0,NW,5.8,-,N/A,,Clear,310,2013-06-27 03:53:00
9:53 PM,57.0,52.0,83,30.09,10.0,WNW,4.6,-,N/A,,Clear,300,2013-06-27 04:53:00
10:53 PM,55.0,51.1,86,30.11,10.0,SW,3.5,-,N/A,,Clear,230,2013-06-27 05:53:00
11:53 PM,52.0,48.9,89,30.12,10.0,WSW,4.6,-,N/A,,Clear,250,2013-06-27 06:53:00